STARLINK-3941, 52638

Orbit data source: Space-Track

STARLINK-3941, 52638 is a payload satellite owned by SpaceX/Seattle (US) in LEO that was launched on Sat, 14 May 2022 UTC via an FALCON 9 launch vehicle from the Air Force Eastern Test Range (AFETR). Payload-class satellites include a variety of spacecraft equipped with specific instruments for various scientific and technological missions. These include communications satellites like Starlink; space stations such as the ISS; scientific satellites like the Hubble; Earth observation satellites from companies like Planet Labs, Umbra, and HawkEye 360; GPS; miniature CubeSats for education and research; and military/defense satellites.

Loading next visibility...
Identifier
52638, 2022-052AS
Orbit
LEO
Country
Flag of USUS
Related business
Manufacturer
SpaceX/Seattle
Mission
Operational Commercial Communications
Bus & Motor
STARLINK, Unknown motor
Mass
297 kg wet, ~275 kg dry
Launch date (UTC)
2022-05-14 (4 years ago)
Launch vehicle
FALCON 9
Launch site
Air Force Eastern Test Range (AFETR)
Object type
Payload
Rocket body
Debris
Shape & HBR
Box + 1 Pan, 10.1 m
Radar Cross Section
13.562 m², Large (>1 m²)

Expand to show TLE details & history
Last TLE update: 2 days ago

TLE from 2 days ago
0 STARLINK-3941
1 52638U 22052AS  26171.37299966  .00000486  00000-0  48622-4 0  9997
2 52638  53.1597 168.0427 0001291  91.1079 269.0061 15.08834557227308
Epoch: 2026-06-20T08:57Z
TLE epoch observation values (Epoch: 2026-06-20T08:57:07.170Z)
Latitude
0.00002°
Longitude
125.17429°
Altitude
540.667 km
Speed
7.593 km/s
True Right ascension
11h 12m 10s
True Declination
0° 00' 00"
Sunlit
Object was in daylight at epoch
Visualization orbit readout
Latitude
Unknown
Longitude
Unknown
Altitude
Unknown
Speed
Unknown
Apparent Right ascension
Unknown
Apparent Declination
Unknown
Sunlit
N/A
Visualization observer readout
Local Sidereal Time
21:29:25
Azimuth
Unknown
Elevation
Unknown
Doppler factor
Unknown
Orbital elements
Apogee altitude
540.907 km
Perigee altitude
539.121 km
Semi-major axis
6,918.151 km
Eccentricity
0.00013
Inclination
53.1597°
RAAN
168.0427°
Arg. of periapsis
91.1079°
True anomaly
268.99131°
Mean anomaly
269.0061°
Eccentric anomaly
268.9987°
Mean motion
3.77188 °/min
Orbital period
95.44 mins
BSTAR
0.000048622
Loading maneuver chart data...
Computing Atmospheric mass density...
Loading historical data...
Loading historical data...
Loading historical data...
Loading historical data...
Loading historical data...
Loading historical data...
Loading historical data...

Documentation

Showing up to 5 results
|